EHI
0 3 8 11 12 11 11 10 10 9 8 6 3 2 3 3 2 1 0 1 2 1 0 0 0 0 0 0 0 0 0 0 0 0 0 0 0 0 0 0 0 0 0
1 4 10 13 13 12 10 9 9 9 8 5 3 2 2 2 1 0 0 1 1 1 0 0 0 0 0 0 0 0 0 0 0 0 0 0 0 0 0 0 0 0 0
3 6 11 15 15 14 13 11 10 9 8 6 3 1 1 1 0 0 0 0 0 0 0 0 0 0 0 0 0 0 0 0 0 0 0 0 0 0 0 0 0 0 0
3 6 12 16 17 17 16 13 10 9 8 7 4 3 2 1 1 1 0 0 0 0 0 0 0 0 0 0 0 0 0 0 0 0 0 0 0 0 0 0 0 0 0
3 7 13 17 18 17 16 14 11 10 9 8 6 4 2 2 1 1 0 0 0 0 0 0 0 0 0 0 0 0 0 0 0 0 0 0 0 0 0 0 0 0 0
3 7 12 17 19 17 14 12 11 10 9 8 5 3 1 1 1 0 0 0 0 0 0 0 0 0 0 0 0 0 0 0 0 0 0 0 0 0 0 0 0 0 0
4 6 11 14 16 16 14 12 10 9 7 7 5 2 1 0 0 0 0 0 0 0 0 0 0 1 1 0 0 0 0 0 0 0 0 0 0 0 0 0 0 0 0
4 6 9 11 12 12 11 10 8 6 5 5 4 2 1 1 1 0 0 0 0 0 0 0 1 2 1 0 0 0 0 0 0 0 0 0 0 0 0 0 0 0 0
5 6 8 8 9 8 8 8 6 4 3 3 3 1 0 1 1 1 1 0 0 0 0 1 2 2 1 0 0 0 0 0 0 0 0 0 0 0 0 0 0 0 0
7 8 7 7 8 8 7 6 5 2 1 1 1 1 0 0 0 0 0 0 0 0 1 2 3 2 1 0 0 0 0 0 0 0 0 0 0 0 0 0 0 0 0
9 8 7 6 7 8 7 6 5 2 0 0 0 0 0 1 1 0 0 0 0 0 1 2 3 2 1 0 0 0 0 0 0 0 0 0 0 0 0 0 0 0 0
7 7 7 6 7 8 7 6 6 4 1 0 0 0 1 2 1 0 0 0 0 0 1 2 2 1 0 0 0 0 0 0 0 0 0 0 0 0 0 0 0 0 0
3 5 6 6 7 7 7 6 6 5 2 0 0 0 1 2 2 0 0 0 0 0 0 1 1 0 0 0 0 0 0 0 0 0 0 0 0 0 0 0 0 0 0
1 3 5 6 6 6 6 6 6 5 3 1 0 0 1 2 2 1 0 0 0 0 0 0 0 0 0 0 0 0 0 0 0 0 0 0 0 0 0 0 0 0 0
2 3 4 6 6 6 6 6 6 5 4 1 0 0 1 2 2 1 0 0 0 0 0 0 0 0 0 0 0 0 0 0 0 0 0 0 0 0 0 0 0 0 0
3 3 4 5 6 6 6 6 5 3 2 1 0 0 0 1 1 1 0 0 0 0 0 0 0 0 0 0 0 0 0 0 0 0 0 0 0 0 0 0 0 0 0
3 3 3 3 4 4 4 4 3 2 1 0 0 0 0 0 0 0 0 0 0 0 0 0 0 0 0 0 0 0 0 0 0 0 0 0 0 0 0 0 0 0 0
3 2 1 1 2 2 3 3 2 1 0 0 0 0 0 0 0 0 0 0 0 0 0 0 0 0 0 0 0 0 0 0 0 0 0 0 0 0 0 0 0 0 0
2 2 1 0 0 2 3 3 2 1 0 0 0 0 0 0 0 0 0 0 0 0 0 0 0 0 0 0 0 0 0 0 0 0 0 0 0 0 0 0 0 0 0
1 1 1 0 1 2 3 3 2 1 0 0 0 0 0 0 0 0 0 0 0 0 0 0 0 0 0 0 0 0 0 0 0 0 0 0 0 0 0 0 0 0 0
0 0 0 0 1 2 2 2 2 1 0 0 0 0 0 0 0 0 0 0 0 0 0 0 0 0 0 0 0 0 0 0 0 0 0 0 0 0 0 0 0 0 0
0 0 0 0 0 1 1 1 1 0 0 0 0 0 0 0 0 0 0 0 0 0 0 0 0 0 0 0 0 0 0 0 0 0 0 0 0 0 0 0 0 0 0
0 0 0 0 0 1 2 2 1 0 0 0 0 0 0 0 0 0 0 0 0 0 0 0 0 0 0 0 0 0 0 0 0 0 0 0 0 0 0 0 0 0 0
0 0 0 0 0 1 2 2 1 0 0 0 0 0 0 0 0 0 0 0 0 0 0 0 0 0 0 0 0 0 0 0 0 0 0 0 0 0 0 0 0 0 0
0 0 0 0 0 0 1 1 1 0 0 0 0 0 0 0 0 0 0 0 0 0 0 0 0 0 0 0 0 0 0 0 0 0 0 0 0 0 0 0 0 0 0
0 0 0 0 0 0 0 1 0 0 0 0 0 0 0 0 0 0 0 0 0 0 0 0 0 0 0 0 0 0 0 0 0 0 0 0 0 0 0 0 0 0 0
Wind_Speed
2 3 3 4 5 6 7 8 9 9 10 11 11 11 12 12 12 13 13 13 13 13 14 15 15 16 16 16 17 17 17 17 17 17 16 16 16 17 17 16 15 11 17
1 1 2 4 5 6 7 7 8 9 9 10 10 11 11 11 12 12 12 12 12 13 14 14 15 15 16 16 16 16 16 16 16 16 14 13 14 16 16 16 15 11 17
2 1 1 4 5 6 6 7 8 8 8 9 9 10 10 11 11 12 12 12 12 13 14 14 14 15 15 15 15 15 15 15 15 14 12 7 10 16 16 16 16 16 16
2 2 1 3 5 5 6 7 7 8 8 8 9 9 10 11 11 11 12 12 12 13 13 13 13 13 13 14 14 14 14 14 14 12 6 5 6 14 15 15 16 16 16
3 3 3 4 5 6 6 6 7 7 8 8 8 9 9 10 11 11 11 11 12 12 13 13 12 13 12 13 13 13 14 14 13 10 6 5 5 13 15 15 15 15 15
3 4 4 6 6 6 6 7 7 8 8 8 8 8 9 10 10 11 11 11 12 12 12 12 12 12 11 11 12 13 13 13 10 6 5 5 5 13 15 15 15 14 14
3 3 4 7 7 7 6 7 7 7 7 8 7 8 8 9 10 10 10 11 11 12 12 11 11 11 10 11 12 12 13 12 7 5 4 4 7 13 14 14 14 13 14
4 3 3 6 7 8 7 7 7 7 6 7 7 7 8 9 9 10 10 11 11 11 11 11 10 10 10 11 11 12 11 10 8 6 4 4 9 13 13 13 13 13 13
4 3 3 3 4 6 7 7 7 7 7 6 7 7 7 8 9 10 9 10 10 10 10 10 10 10 10 10 11 11 10 10 5 3 5 4 9 12 12 12 12 12 12
3 3 3 3 3 3 3 6 7 7 7 6 6 6 7 7 7 9 8 9 9 9 9 9 9 10 10 10 10 10 10 8 4 4 2 5 10 11 11 11 11 12 12
3 3 2 3 3 3 2 4 5 6 6 6 6 7 6 4 4 5 6 8 8 8 9 9 9 10 9 8 9 9 7 3 3 3 2 7 9 10 10 10 11 11 11
2 2 2 2 2 2 2 2 2 2 3 3 3 4 3 3 3 4 6 7 7 7 7 7 8 8 6 4 5 6 3 3 3 2 3 7 8 9 10 10 10 9 9
0 1 2 2 2 2 1 1 1 1 2 2 3 3 3 3 3 3 3 3 4 4 3 4 4 3 3 3 3 3 3 3 2 2 3 6 7 9 9 9 9 9 9
1 1 1 2 2 2 2 1 1 1 1 1 1 3 3 2 2 2 2 2 2 2 2 2 2 3 4 4 4 3 3 2 2 1 2 6 6 7 8 8 8 9 8
1 1 1 1 1 1 1 1 1 1 1 1 1 2 2 2 2 2 2 2 2 2 2 2 2 3 4 4 3 4 3 3 3 2 2 5 5 6 7 7 7 8 8
1 1 1 1 1 1 1 1 1 0 1 1 1 2 2 2 2 2 2 2 2 2 2 2 3 3 3 3 3 3 3 3 3 2 2 2 4 5 6 6 6 6 7
1 1 1 0 1 1 1 1 1 0 1 1 1 2 2 2 2 2 2 2 1 1 2 2 2 3 3 3 3 2 2 2 2 2 2 1 1 3 4 5 5 5 5
1 1 1 1 1 1 0 1 1 1 1 1 1 2 2 2 2 2 2 2 1 2 2 3 2 3 3 3 2 2 1 2 2 2 2 1 1 1 2 4 4 4 4
1 1 1 2 1 0 0 1 1 1 1 1 1 1 2 2 2 2 2 1 2 2 2 2 2 3 3 3 2 2 1 1 1 2 2 2 1 1 1 3 3 3 4
1 1 1 2 1 0 0 1 1 1 1 1 1 1 2 2 2 2 2 2 2 2 2 2 3 2 3 3 3 2 1 1 1 1 2 2 2 2 2 2 2 2 3
2 2 1 1 2 1 0 1 1 1 1 1 1 2 2 2 3 3 2 2 2 2 3 3 3 4 3 3 3 2 2 2 1 1 1 2 2 2 2 2 2 1 1
2 1 1 1 2 1 0 1 2 2 1 2 1 1 2 2 2 2 3 3 2 2 3 3 3 2 2 2 3 2 1 1 1 1 1 1 1 1 1 1 1 1 1
3 2 1 1 1 2 1 0 0 0 0 1 1 1 1 1 2 2 3 3 3 3 3 3 4 3 3 1 2 3 3 2 1 1 0 0 1 0 0 0 1 0 1
3 2 2 2 2 2 2 1 1 1 1 1 1 1 1 0 1 2 3 3 3 2 3 4 3 3 4 3 1 0 1 2 2 1 1 1 0 0 1 0 0 0 0
2 2 2 3 3 3 2 1 1 0 0 1 1 1 1 1 0 1 2 3 3 2 3 3 3 3 3 3 2 1 1 0 1 2 2 1 1 1 1 1 1 1 1
2 2 3 3 3 3 3 2 1 0 0 1 1 2 1 1 1 1 1 2 3 2 3 4 4 4 2 2 1 1 1 1 1 1 2 2 2 2 1 1 1 1 1
Wind_Direction
328 321 10 49 68 85 89 93 95 99 101 103 105 104 102 101 101 103 104 103 102 101 99 96 95 94 93 91 90 88 86 83 81 81 78 79 82 84 82 79 76 73 78
277 321 31 59 71 81 92 93 96 97 104 105 106 108 108 106 106 106 107 105 105 104 102 99 97 96 95 94 92 91 89 87 85 82 77 77 82 85 86 84 83 82 81
66 32 50 58 72 77 92 97 100 99 101 108 108 111 112 110 109 108 108 107 106 105 104 103 101 99 98 97 95 93 92 91 88 84 79 73 83 87 87 86 85 84 82
78 40 59 58 77 79 88 103 106 106 102 105 110 110 113 112 111 109 108 107 108 108 107 106 103 100 99 98 98 96 95 94 89 83 71 67 79 89 88 87 86 85 84
64 31 33 53 79 82 85 97 109 106 103 101 105 109 111 114 114 111 109 108 109 108 107 106 105 101 98 96 96 97 96 94 90 79 69 68 75 90 89 87 85 85 85
62 36 39 49 70 80 86 94 103 107 106 103 102 108 111 113 115 113 110 109 108 109 108 108 106 102 98 96 96 96 96 95 87 74 71 73 81 92 91 90 87 86 85
71 45 47 50 57 69 79 90 91 99 105 104 104 106 111 113 114 115 114 112 110 110 109 109 107 105 101 100 98 97 95 97 88 77 76 78 91 94 92 92 90 88 85
92 61 55 52 51 55 65 74 80 85 96 102 100 101 104 111 114 116 118 117 115 113 112 111 108 105 106 104 99 97 95 96 93 88 83 87 99 98 95 93 91 89 86
83 69 53 49 51 53 55 63 68 72 78 88 92 93 94 101 113 116 115 119 119 116 114 110 107 103 104 103 100 95 93 92 87 86 95 92 102 101 98 96 93 92 90
74 67 52 40 40 48 57 60 63 65 65 72 78 81 83 94 107 116 114 115 119 118 116 112 107 102 98 98 96 94 93 89 82 78 83 102 105 103 101 100 97 95 92
54 41 43 37 31 35 54 61 62 64 59 66 71 69 72 85 98 113 115 111 116 119 119 115 108 97 90 91 89 87 85 84 86 78 87 107 111 109 106 104 101 99 97
45 32 32 27 24 37 56 58 57 70 57 60 75 78 72 74 84 93 106 104 110 114 117 111 101 94 84 81 80 79 79 85 83 78 96 108 114 114 111 109 107 104 103
148 61 40 28 23 35 42 62 43 52 54 50 72 74 80 75 79 85 97 98 104 103 104 99 95 88 87 86 79 81 84 86 80 73 94 102 111 116 115 114 115 113 109
36 7 36 49 38 29 35 53 67 65 74 66 72 80 93 93 91 92 93 101 103 102 104 101 101 98 93 90 88 87 83 90 87 77 92 95 102 115 119 118 118 120 116
41 2 349 50 67 61 60 51 64 84 93 81 94 86 93 109 116 106 109 102 99 98 110 117 111 103 99 96 93 94 89 92 94 83 86 94 97 110 123 122 119 122 122
350 351 344 51 68 80 91 89 72 58 96 91 97 91 92 107 121 125 118 110 104 104 110 123 125 111 106 105 100 98 101 101 97 89 80 92 96 105 113 121 124 123 126
292 347 357 354 81 91 110 129 104 79 66 102 124 109 99 103 126 133 125 124 120 118 109 110 104 105 105 102 103 100 106 108 111 99 90 80 92 103 117 120 125 126 124
60 32 5 8 63 103 140 150 127 116 117 77 121 127 119 117 124 135 131 136 140 131 121 130 127 114 113 112 110 103 98 102 108 109 101 94 86 88 111 118 115 122 123
33 73 26 7 12 122 191 176 134 127 118 122 102 121 137 133 127 135 134 138 143 130 123 131 127 131 127 120 118 113 102 99 109 109 109 112 105 90 77 98 104 106 112
13 45 42 9 356 346 150 119 112 111 120 102 115 108 140 142 138 134 135 135 135 130 129 125 136 134 136 134 121 96 71 81 117 127 135 114 97 87 78 76 76 77 90
21 38 44 15 355 20 136 167 178 182 166 149 137 139 120 141 137 138 138 144 140 142 145 131 135 139 130 126 109 82 41 31 62 87 99 97 85 82 85 86 82 63 40
9 360 25 14 9 0 253 220 208 197 187 169 153 128 109 131 141 147 146 155 147 138 130 129 126 137 149 132 128 123 110 18 1 7 51 108 98 81 89 83 90 93 58
2 350 350 3 11 10 359 15 68 109 96 107 122 111 87 110 147 149 160 157 154 152 160 163 153 131 157 163 138 140 150 187 206 316 350 87 85 45 19 71 93 91 79
338 340 353 12 24 18 22 84 137 161 189 192 185 159 126 144 137 151 162 160 163 168 172 176 156 146 152 165 182 70 144 153 160 196 308 343 11 255 250 269 245 263 299
341 359 17 16 24 24 20 25 100 72 215 168 155 157 155 171 94 162 163 163 170 179 180 175 164 156 159 163 168 153 105 99 119 157 205 247 311 281 258 244 225 232 262
3 20 28 23 13 17 18 11 15 80 112 140 156 180 175 170 189 192 175 171 177 183 190 183 175 168 170 164 168 168 166 176 184 171 184 205 234 263 273 258 236 232 243